Погода в Прае-а-Маре

Италия     39°54′19″N   15°46′34″E
темп.,
°C
ветер,
м/с
пор.,
м/с
влажн.,
%
обл.,
%
осадки,
мм/ч
давл.,
гПа
погр.,
м
18 мая, ср
ср1823:00+17юв117997 0.1 101866
02:00+16всв22815 0.2 101744
05:00+16всв11775 0.0 101742
08:00+19сз11675 0.0 1018139
11:00+20зюз236815 0.0 1018921
14:00+20зсз146836 0.7 1018867
17:00+21з23610 0.0 1018478
20:00+19св22730 0.0 101823
19 мая, чт
чт1923:00+16всв55700 0.0 102190
02:00+15св55740 0.0 102199
05:00+14св65800 0.0 1022107
08:00+17св55620 0.0 1023460
11:00+20всв34440 0.0 1024664
14:00+22всв46420 0.0 1024770
17:00+23всв46410 0.0 1024697
20:00+17всв55540 0.0 102651
20 мая, пт
пт2023:00+15всв65490 0.0 102769
02:00+14всв54460 0.0 102763
05:00+14всв54390 0.0 102755
08:00+18всв22410 0.0 102886
11:00+19юз22380 0.0 1028415
14:00+17зюз11515 0.0 1028354
17:00+18ююз11615 0.0 1027205
20:00+16юв22755 0.0 1026116
21 мая, сб
сб2123:00+15всв3373100 0.0 102660
02:00+15всв22735 0.0 102560
05:00+15всв227333 0.0 102463
08:00+17ю11685 0.0 1023198
11:00+18ююз32791 0.0 1023374
14:00+18зюз328534 0.0 1022341
17:00+17юз12821 0.0 1021282
20:00+17ююв228310 0.0 1020272
22 мая, вс
вс2223:00+16всв22864 0.0 102158
02:00+16всв11830 0.0 101961
05:00+15всв11855 0.0 101855
08:00+17юз1079100 0.0 1018190
11:00+18юз3282100 0.0 1018292
14:00+18зюз328590 0.0 1017280
17:00+17зюз118286 0.0 1016190
20:00+17ююв11825 0.0 101674